Weather in Krasnaya Yaruga

Russia / Belgorod Oblast     50°48′03″N   35°39′28″E
temp.,
°C
wind,
m/s
gust,
m/s
humid.,
%
clouds,
%
prec.,
mm/h
press.,
hPa
HPBL,
m
19 april, mon
mon1900:00+5ene3494100 1.7 1017377
03:00+5nne3494100 1.8 1017241
06:00+5ne3595100 0.2 1016174
09:00+6ne2390100 0.4 1016169
12:00+9ene2269100 0.1 1016776
15:00+11nne216398 0.1 10151003
18:00+11nne226481 0.1 1014653
21:00+8ene368427 0.3 1014157
20 april, tue
tue2000:00+7e34936 0.0 101373
03:00+6ene339275 0.0 101252
06:00+6ene3796100 0.0 1011165
09:00+9e5884100 0.1 1010468
12:00+10ene6884100 0.6 1007712
15:00+9ne71188100 1.4 1004795
18:00+8nne71192100 2.6 1002735
21:00+7n6990100 3.8 1002886
21 april, wed
wed2100:00+6nw5891100 0.1 1003774
03:00+6wnw51092100 0.1 1005638
06:00+6w498869 0.0 1008597
09:00+8wsw567767 0.0 1010818
12:00+10sw5769100 0.2 10111308
15:00+10w586027 0.8 10131383
18:00+10w57686 0.1 10141015
21:00+7wsw337510 0.2 101654
22 april, thu
thu2200:00+6s337784 0.0 101737
03:00+5s37845 0.0 1017130
06:00+5s37865 0.0 1018125
09:00+10ssw51075100 0.1 1019472
12:00+12ssw456778 0.0 1019587
15:00+15s4553100 0.3 10181751
18:00+13s4863100 0.3 1019343
21:00+11s3577100 0.3 1019110
23 april, fri
fri2300:00+10s35795 0.0 1019110
03:00+9s3580100 0.0 1019110
06:00+9s3779100 0.0 1019163
09:00+13s466970 0.0 1018403
12:00+16ssw784968 0.8 10172184
15:00+16s6950100 0.8 10152148
18:00+15s6105779 0.6 10141019
21:00+11sw61080100 1.6 1015619